Satellite: RS-30
Catalog number: 32953
Epoch time:      12019.50109705
Element set:     448
Inclination:      082.5004 deg
RA of node:       028.2202 deg
Eccentricity:    0.0017587
Arg of perigee:   275.5231 deg
Mean anomaly:     084.3848 deg
Mean motion:   12.43020120 rev/day
Decay rate:        1.0e-07 rev/day^2
Epoch rev:           16596
Checksum:              258

Satellite: TACSAT-3
Catalog number: 35001
Epoch time:      12019.88224883
Element set:     837
Inclination:      040.4502 deg
RA of node:       283.1829 deg
Eccentricity:    0.0007442
Arg of perigee:   292.0072 deg
Mean anomaly:     068.0002 deg
Mean motion:   15.69259585 rev/day
Decay rate:     7.8579e-04 rev/day^2
Epoch rev:           15084
Checksum:              306

Satellite: PHARMSAT
Catalog number: 35002
Epoch time:      12019.12487319
Element set:     770
Inclination:      040.4676 deg
RA of node:       290.2498 deg
Eccentricity:    0.0007387
Arg of perigee:   017.3787 deg
Mean anomaly:     342.7802 deg
Mean motion:   15.62627700 rev/day
Decay rate:     4.3189e-04 rev/day^2
Epoch rev:           15070
Checksum:              298

Satellite: HAWKSAT1
Catalog number: 35003
Epoch time:      11276.79285837
Element set:     811
Inclination:      040.4398 deg
RA of node:       174.3672 deg
Eccentricity:    0.0011414
Arg of perigee:   274.3918 deg
Mean anomaly:     085.3844 deg
Mean motion:   16.13812532 rev/day
Decay rate:   2.274821e-02 rev/day^2
Epoch rev:           13457
Checksum:              306

Satellite: CP6
Catalog number: 35004
Epoch time:      11247.64656856
Element set:     784
Inclination:      040.4403 deg
RA of node:       342.9642 deg
Eccentricity:    0.0002956
Arg of perigee:   038.0069 deg
Mean anomaly:     322.2231 deg
Mean motion:   16.41039951 rev/day
Decay rate:  1.6152067e-01 rev/day^2
Epoch rev:           13013
Checksum:              285

Satellite: METEOR-M
Catalog number: 35865
Epoch time:      12019.75320813
Element set:      79
Inclination:      098.6768 deg
RA of node:       076.7329 deg
Eccentricity:    0.0003099
Arg of perigee:   115.0103 deg
Mean anomaly:     245.1410 deg
Mean motion:   14.21853912 rev/day
Decay rate:       -1.1e-07 rev/day^2
Epoch rev:           12136
Checksum:              275

Satellite: RS-38
Catalog number: 35869
Epoch time:      12019.79570369
Element set:      76
Inclination:      098.6743 deg
RA of node:       076.7927 deg
Eccentricity:    0.0005264
Arg of perigee:   118.7773 deg
Mean anomaly:     241.3927 deg
Mean motion:   14.22050242 rev/day
Decay rate:        1.8e-07 rev/day^2
Epoch rev:           12138
Checksum:              325

Satellite: ARISSAT1
Catalog number: 37772
Epoch time:      12004.04884568
Element set:     479
Inclination:      051.6129 deg
RA of node:       213.1240 deg
Eccentricity:    0.0007478
Arg of perigee:   255.9283 deg
Mean anomaly:     104.1611 deg
Mean motion:   16.41716225 rev/day
Decay rate:  1.3494171e-01 rev/day^2
Epoch rev:            2407
Checksum:              290

Satellite: JUGNU
Catalog number: 37839
Epoch time:      12018.79217997
Element set:      71
Inclination:      019.9595 deg
RA of node:       189.3324 deg
Eccentricity:    0.0019762
Arg of perigee:   008.1532 deg
Mean anomaly:     351.9086 deg
Mean motion:   14.12017961 rev/day
Decay rate:       6.19e-06 rev/day^2
Epoch rev:            1396
Checksum:              321

Satellite: SRMSAT
Catalog number: 37841
Epoch time:      12018.85471115
Element set:      71
Inclination:      019.9714 deg
RA of node:       190.8786 deg
Eccentricity:    0.0011907
Arg of perigee:   338.7752 deg
Mean anomaly:     021.2198 deg
Mean motion:   14.10108963 rev/day
Decay rate:       2.64e-06 rev/day^2
Epoch rev:            1394
Checksum:              292

Satellite: RAX-2
Catalog number: 37853
Epoch time:      12019.91531190
Element set:      74
Inclination:      101.7091 deg
RA of node:       352.3333 deg
Eccentricity:    0.0251791
Arg of perigee:   055.9848 deg
Mean anomaly:     306.4999 deg
Mean motion:   14.78488506 rev/day
Decay rate:      5.266e-05 rev/day^2
Epoch rev:            1232
Checksum:              313

Satellite: AUBIESAT
Catalog number: 37854
Epoch time:      12018.88838242
Element set:      75
Inclination:      101.7118 deg
RA of node:       350.9164 deg
Eccentricity:    0.0253649
Arg of perigee:   058.5157 deg
Mean anomaly:     304.0576 deg
Mean motion:   14.78718259 rev/day
Decay rate:      5.084e-05 rev/day^2
Epoch rev:            1216
Checksum:              313

Satellite: HRBE
Catalog number: 37855
Epoch time:      12019.83797826
Element set:      75
Inclination:      101.7131 deg
RA of node:       352.2862 deg
Eccentricity:    0.0253992
Arg of perigee:   055.6439 deg
Mean anomaly:     306.8516 deg
Mean motion:   14.78669272 rev/day
Decay rate:      5.293e-05 rev/day^2
Epoch rev:            1230
Checksum:              321

/EX
_______________________________________________
Via the Keps mailing list courtesy of AMSAT-NA
http://amsat.org/mailman/listinfo/keps

--- ViaMAIL!/WC v1.60d
 * Origin: Chowdanet (401-724-4410) telnet://chowdanet.com  (1:323/120)